JST776 YMML-YPAD

Flight info

Callsign JST776
Flight time 1h 3m
Altitude 38000
Route ML H345 AD
Aircraft A320/M-SDE3FGHIRWY/LB1

Departure

Time 2026-05-01 12:36
Airport Melbourne Airport (YMML)

Arrival

Time 2026-05-01 13:39
Airport Adelaide International Airport (YPAD)
Time Latitude Longitude Altitude Speed Heading
2026-05-01 12:13 -37.67573 144.84657 377 ft 0 kts 81°
2026-05-01 12:26 -37.67576 144.84630 377 ft 4 kts 84°
2026-05-01 12:26 -37.67579 144.84597 376 ft 2 kts 82°
2026-05-01 12:27 -37.67579 144.84569 376 ft 4 kts 121°
2026-05-01 12:27 -37.67539 144.84548 377 ft 0 kts 172°
2026-05-01 12:30 -37.67662 144.84572 373 ft 16 kts 172°
2026-05-01 12:30 -37.67759 144.84590 369 ft 15 kts 171°
2026-05-01 12:30 -37.67826 144.84516 365 ft 17 kts 261°
2026-05-01 12:31 -37.67846 144.84349 365 ft 19 kts 262°
2026-05-01 12:31 -37.67862 144.84208 360 ft 12 kts 261°
2026-05-01 12:31 -37.67864 144.84195 359 ft 0 kts 262°
2026-05-01 12:32 -37.67867 144.84171 359 ft 6 kts 261°
2026-05-01 12:32 -37.67873 144.84114 361 ft 0 kts 262°
2026-05-01 12:34 -37.67879 144.84067 359 ft 10 kts 261°
2026-05-01 12:34 -37.67875 144.83977 357 ft 10 kts 320°
2026-05-01 12:34 -37.67809 144.83955 362 ft 6 kts 352°
2026-05-01 12:34 -37.67800 144.83953 361 ft 0 kts 352°
2026-05-01 12:35 -37.67799 144.83953 361 ft 1 kts 352°
2026-05-01 12:35 -37.67662 144.83928 368 ft 53 kts 351°
2026-05-01 12:35 -37.67082 144.83819 383 ft 112 kts 352°
2026-05-01 12:36 -37.66161 144.83648 417 ft 154 kts 351°
2026-05-01 12:36 -37.65056 144.83440 790 ft 166 kts 352°
2026-05-01 12:36 -37.63864 144.83223 1187 ft 186 kts 352°
2026-05-01 12:36 -37.62516 144.82981 1626 ft 204 kts 355°
2026-05-01 12:37 -37.61020 144.82710 2092 ft 228 kts 355°
2026-05-01 12:37 -37.59408 144.82413 2952 ft 236 kts 355°
2026-05-01 12:37 -37.57793 144.82091 4040 ft 237 kts 350°
2026-05-01 12:37 -37.56323 144.81109 5028 ft 250 kts 317°
2026-05-01 12:38 -37.55482 144.79138 6010 ft 262 kts 295°
2026-05-01 12:38 -37.54935 144.76932 7025 ft 265 kts 291°
2026-05-01 12:38 -37.54440 144.74674 7943 ft 269 kts 289°
2026-05-01 12:38 -37.53953 144.72381 8861 ft 273 kts 289°
2026-05-01 12:39 -37.53455 144.70057 9796 ft 276 kts 288°
2026-05-01 12:39 -37.52935 144.67685 10422 ft 291 kts 289°
2026-05-01 12:39 -37.52359 144.65136 10698 ft 314 kts 289°
2026-05-01 12:39 -37.51733 144.62407 11064 ft 332 kts 289°
2026-05-01 12:40 -37.51084 144.59585 11713 ft 339 kts 289°
2026-05-01 12:40 -37.50431 144.56751 12418 ft 344 kts 289°
2026-05-01 12:40 -37.49749 144.53805 13142 ft 349 kts 289°
2026-05-01 12:40 -37.49072 144.50884 13829 ft 354 kts 289°
2026-05-01 12:41 -37.48375 144.47883 14467 ft 360 kts 289°
2026-05-01 12:41 -37.47674 144.44850 15123 ft 363 kts 289°
2026-05-01 12:41 -37.46964 144.41782 15791 ft 366 kts 289°
2026-05-01 12:41 -37.46249 144.38701 16454 ft 368 kts 289°
2026-05-01 12:42 -37.45527 144.35598 17110 ft 371 kts 289°
2026-05-01 12:42 -37.44797 144.32464 17775 ft 374 kts 289°
2026-05-01 12:42 -37.44064 144.29316 18443 ft 378 kts 289°
2026-05-01 12:42 -37.43320 144.26127 19051 ft 381 kts 289°
2026-05-01 12:43 -37.42569 144.22921 19699 ft 383 kts 289°
2026-05-01 12:43 -37.41813 144.19698 20360 ft 385 kts 289°
2026-05-01 12:43 -37.41049 144.16458 21014 ft 387 kts 289°
2026-05-01 12:43 -37.40283 144.13210 21647 ft 389 kts 290°
2026-05-01 12:44 -37.39510 144.09936 22247 ft 392 kts 289°
2026-05-01 12:44 -37.38732 144.06641 22827 ft 394 kts 289°
2026-05-01 12:44 -37.37161 143.99995 23910 ft 399 kts 289°
2026-05-01 12:45 -37.35573 143.93276 24792 ft 404 kts 289°
2026-05-01 12:45 -37.34771 143.89886 25223 ft 406 kts 289°
2026-05-01 12:45 -37.33973 143.86520 25644 ft 408 kts 289°
2026-05-01 12:46 -37.33158 143.83092 26050 ft 411 kts 289°
2026-05-01 12:46 -37.32336 143.79652 26451 ft 413 kts 289°
2026-05-01 12:46 -37.31504 143.76182 26853 ft 415 kts 289°
2026-05-01 12:46 -37.30669 143.72696 27255 ft 418 kts 289°
2026-05-01 12:47 -37.29830 143.69190 27651 ft 421 kts 289°
2026-05-01 12:47 -37.28989 143.65668 28045 ft 423 kts 289°
2026-05-01 12:47 -37.28141 143.62122 28440 ft 426 kts 289°
2026-05-01 12:47 -37.27284 143.58552 28817 ft 428 kts 289°
2026-05-01 12:48 -37.26417 143.54960 29188 ft 431 kts 289°
2026-05-01 12:48 -37.25546 143.51358 29564 ft 433 kts 289°
2026-05-01 12:48 -37.24668 143.47729 29912 ft 436 kts 289°
2026-05-01 12:48 -37.23787 143.44083 30269 ft 438 kts 289°
2026-05-01 12:49 -37.22900 143.40416 30550 ft 440 kts 289°
2026-05-01 12:49 -37.22010 143.36754 30979 ft 438 kts 289°
2026-05-01 12:49 -37.21120 143.33107 31441 ft 436 kts 289°
2026-05-01 12:49 -37.20235 143.29481 31906 ft 434 kts 289°
2026-05-01 12:50 -37.19329 143.25887 32379 ft 431 kts 291°
2026-05-01 12:50 -37.18337 143.22361 32854 ft 428 kts 292°
2026-05-01 12:50 -37.17279 143.18886 33346 ft 425 kts 294°
2026-05-01 12:50 -37.16191 143.15447 33836 ft 423 kts 294°
2026-05-01 12:51 -37.15101 143.12033 34299 ft 421 kts 294°
2026-05-01 12:51 -37.14023 143.08631 34710 ft 419 kts 294°
2026-05-01 12:51 -37.11912 143.01838 35493 ft 417 kts 293°
2026-05-01 12:52 -37.10873 142.98443 35863 ft 416 kts 293°
2026-05-01 12:52 -37.08808 142.91683 36590 ft 415 kts 293°
2026-05-01 12:52 -37.07788 142.88364 36925 ft 414 kts 293°
2026-05-01 12:53 -37.05723 142.81652 37596 ft 412 kts 293°
2026-05-01 12:53 -37.04694 142.78308 37918 ft 412 kts 293°
2026-05-01 12:53 -37.03658 142.74954 38128 ft 414 kts 293°
2026-05-01 12:54 -37.02613 142.71583 38168 ft 419 kts 293°
2026-05-01 12:54 -36.99382 142.61214 38157 ft 432 kts 293°
2026-05-01 12:55 -36.96068 142.50597 38152 ft 442 kts 293°
2026-05-01 12:55 -36.94947 142.47007 38290 ft 441 kts 293°
2026-05-01 12:56 -36.93844 142.43469 38755 ft 434 kts 293°
2026-05-01 12:56 -36.92756 142.39974 39123 ft 427 kts 293°
2026-05-01 12:56 -36.91688 142.36539 39491 ft 421 kts 293°
2026-05-01 12:56 -36.90636 142.33155 39872 ft 416 kts 293°
2026-05-01 12:57 -36.89586 142.29805 40234 ft 411 kts 294°
2026-05-01 12:57 -36.87451 142.23080 39967 ft 427 kts 294°
2026-05-01 12:57 -36.86344 142.19612 39895 ft 431 kts 294°
2026-05-01 12:58 -36.85245 142.16156 39789 ft 428 kts 294°
2026-05-01 12:58 -36.84153 142.12709 39500 ft 427 kts 294°
2026-05-01 12:58 -36.83065 142.09261 39256 ft 425 kts 294°
2026-05-01 12:59 -36.80923 142.02464 38852 ft 421 kts 294°
2026-05-01 12:59 -36.79848 141.99075 38617 ft 421 kts 294°
2026-05-01 12:59 -36.77659 141.92214 38094 ft 429 kts 294°
2026-05-01 13:00 -36.74327 141.81773 38114 ft 428 kts 294°
2026-05-01 13:01 -36.72163 141.74994 38119 ft 415 kts 294°
2026-05-01 13:01 -36.71097 141.71669 38124 ft 415 kts 294°
2026-05-01 13:02 -36.67807 141.61476 38111 ft 429 kts 294°
2026-05-01 13:07 -36.45870 140.94111 38076 ft 389 kts 295°
2026-05-01 13:07 -36.44845 140.91007 38075 ft 388 kts 295°
2026-05-01 13:08 -36.42791 140.84807 38073 ft 388 kts 295°
2026-05-01 13:08 -36.40736 140.78607 38068 ft 388 kts 295°
2026-05-01 13:09 -36.38311 140.72672 38070 ft 385 kts 307°
2026-05-01 13:09 -36.35012 140.67447 38071 ft 385 kts 309°
2026-05-01 13:10 -36.31699 140.62225 38078 ft 385 kts 309°
2026-05-01 13:10 -36.28395 140.57006 38075 ft 385 kts 309°
2026-05-01 13:11 -36.25091 140.51789 38073 ft 384 kts 309°
2026-05-01 13:11 -36.21787 140.46595 38076 ft 384 kts 309°
2026-05-01 13:12 -36.18482 140.41410 38081 ft 383 kts 309°
2026-05-01 13:12 -36.15184 140.36235 38077 ft 383 kts 309°
2026-05-01 13:13 -36.11888 140.31071 38072 ft 382 kts 309°
2026-05-01 13:13 -36.08622 140.25894 38065 ft 382 kts 305°
2026-05-01 13:14 -36.06242 140.20016 38072 ft 384 kts 296°
2026-05-01 13:14 -36.04081 140.13986 38063 ft 384 kts 297°
2026-05-01 13:15 -36.01921 140.08005 38060 ft 384 kts 297°
2026-05-01 13:15 -35.99748 140.01988 38054 ft 383 kts 297°
2026-05-01 13:16 -35.97571 139.95977 38047 ft 383 kts 297°
2026-05-01 13:16 -35.95394 139.89973 37679 ft 387 kts 297°
2026-05-01 13:17 -35.92088 139.80852 35620 ft 389 kts 297°
2026-05-01 13:17 -35.90968 139.77790 34893 ft 393 kts 297°
2026-05-01 13:18 -35.88687 139.71574 33314 ft 400 kts 298°
2026-05-01 13:18 -35.87545 139.68446 32471 ft 400 kts 298°
2026-05-01 13:18 -35.86407 139.65318 31592 ft 401 kts 298°
2026-05-01 13:18 -35.85265 139.62176 30771 ft 402 kts 298°
2026-05-01 13:19 -35.84119 139.59033 29827 ft 401 kts 298°
2026-05-01 13:19 -35.82999 139.55954 29282 ft 382 kts 298°
2026-05-01 13:19 -35.80934 139.50279 28447 ft 351 kts 298°
2026-05-01 13:20 -35.79934 139.47563 27770 ft 345 kts 298°
2026-05-01 13:20 -35.78946 139.44890 27073 ft 342 kts 298°
2026-05-01 13:20 -35.77958 139.42221 26548 ft 344 kts 298°
2026-05-01 13:21 -35.75967 139.36852 25740 ft 341 kts 298°
2026-05-01 13:21 -35.74994 139.34215 25456 ft 336 kts 298°
2026-05-01 13:21 -35.74034 139.31616 25067 ft 330 kts 298°
2026-05-01 13:21 -35.73101 139.29092 24385 ft 327 kts 298°
2026-05-01 13:22 -35.72163 139.26558 23700 ft 324 kts 299°
2026-05-01 13:22 -35.71236 139.24049 23022 ft 321 kts 299°
2026-05-01 13:22 -35.70303 139.21532 22544 ft 323 kts 299°
2026-05-01 13:22 -35.69373 139.19022 22098 ft 322 kts 299°
2026-05-01 13:23 -35.68443 139.16521 21643 ft 321 kts 299°
2026-05-01 13:23 -35.67516 139.14029 21206 ft 319 kts 299°
2026-05-01 13:23 -35.66599 139.11563 20769 ft 313 kts 299°
2026-05-01 13:23 -35.65683 139.09139 20330 ft 311 kts 302°
2026-05-01 13:24 -35.64554 139.06911 19880 ft 305 kts 311°
2026-05-01 13:24 -35.63152 139.04941 19432 ft 315 kts 317°
2026-05-01 13:24 -35.61549 139.02943 18944 ft 341 kts 317°
2026-05-01 13:25 -35.58158 138.98680 17813 ft 350 kts 317°
2026-05-01 13:25 -35.56469 138.96537 17258 ft 348 kts 316°
2026-05-01 13:25 -35.54798 138.94417 16702 ft 345 kts 316°
2026-05-01 13:25 -35.53129 138.92306 16130 ft 343 kts 316°
2026-05-01 13:26 -35.51472 138.90220 15568 ft 341 kts 316°
2026-05-01 13:26 -35.49821 138.88142 14984 ft 339 kts 316°
2026-05-01 13:26 -35.48178 138.86077 14424 ft 337 kts 316°
2026-05-01 13:26 -35.46545 138.84028 13847 ft 335 kts 316°
2026-05-01 13:27 -35.44917 138.81984 13219 ft 334 kts 316°
2026-05-01 13:27 -35.43300 138.79956 12646 ft 331 kts 316°
2026-05-01 13:27 -35.40101 138.75949 11501 ft 326 kts 316°
2026-05-01 13:28 -35.36954 138.72009 10529 ft 313 kts 316°
2026-05-01 13:28 -35.35520 138.70209 10400 ft 286 kts 316°
2026-05-01 13:29 -35.32867 138.66875 9914 ft 269 kts 316°
2026-05-01 13:29 -35.30245 138.63608 9660 ft 268 kts 316°
2026-05-01 13:30 -35.25133 138.57238 8833 ft 238 kts 317°
2026-05-01 13:31 -35.22920 138.54486 8164 ft 222 kts 317°
2026-05-01 13:31 -35.19709 138.50497 7221 ft 221 kts 318°
2026-05-01 13:32 -35.17549 138.47814 6379 ft 215 kts 318°
2026-05-01 13:33 -35.14449 138.43967 5005 ft 208 kts 322°
2026-05-01 13:33 -35.12336 138.42033 4568 ft 178 kts 329°
2026-05-01 13:34 -35.10375 138.40294 3874 ft 169 kts 330°
2026-05-01 13:34 -35.08462 138.38608 3635 ft 170 kts 329°
2026-05-01 13:35 -35.06427 138.37307 3470 ft 164 kts
2026-05-01 13:35 -35.05376 138.37826 3269 ft 171 kts 37°
2026-05-01 13:35 -35.03848 138.40042 2736 ft 166 kts 41°
2026-05-01 13:36 -35.03137 138.41091 2487 ft 155 kts 41°
2026-05-01 13:36 -35.02458 138.42087 2258 ft 150 kts 41°
2026-05-01 13:36 -35.01167 138.43976 1827 ft 137 kts 41°
2026-05-01 13:37 -35.00586 138.44834 1626 ft 124 kts 41°
2026-05-01 13:37 -35.00064 138.45601 1453 ft 116 kts 39°
2026-05-01 13:37 -34.99549 138.46346 1291 ft 114 kts 43°
2026-05-01 13:37 -34.99042 138.47079 1126 ft 113 kts 45°
2026-05-01 13:38 -34.97987 138.48605 783 ft 119 kts 47°
2026-05-01 13:38 -34.97443 138.49388 609 ft 122 kts 45°
2026-05-01 13:38 -34.96905 138.50162 428 ft 117 kts 46°
2026-05-01 13:39 -34.96384 138.50931 270 ft 118 kts 48°
2026-05-01 13:39 -34.95865 138.51699 103 ft 118 kts 47°
2026-05-01 13:39 -34.95377 138.52412 27 ft 93 kts 49°
2026-05-01 13:39 -34.95071 138.52857 27 ft 44 kts 50°
2026-05-01 13:40 -34.94899 138.53108 27 ft 36 kts 50°
2026-05-01 13:40 -34.94746 138.53331 28 ft 32 kts 50°
2026-05-01 13:40 -34.94610 138.53531 29 ft 29 kts 50°
2026-05-01 13:40 -34.94484 138.53714 27 ft 27 kts 50°
2026-05-01 13:41 -34.94361 138.53892 28 ft 28 kts 50°
2026-05-01 13:41 -34.94257 138.54036 29 ft 16 kts 33°
2026-05-01 13:41 -34.94169 138.53997 29 ft 15 kts 320°
2026-05-01 13:41 -34.94099 138.53927 29 ft 15 kts 320°
2026-05-01 13:42 -34.94044 138.53846 26 ft 14 kts 301°
2026-05-01 13:42 -34.93982 138.53777 27 ft 6 kts 321°
2026-05-01 13:42 -34.93978 138.53773 27 ft 0 kts 320°